Showing default

COSMOS 2131, 21106

Orbit data source: Space-Track

COSMOS 2131, 21106 is a payload satellite owned by UNKS RF (CIS) in LEO that was launched on Tue, 12 Feb 1991 UTC via a KOSMOS 11K65M launch vehicle from the Plesetsk Missile And Space Complex (PKMTR). Payload-class satellites include a variety of spacecraft equipped with specific instruments for various scientific and technological missions. These include communications satellites like Starlink; space stations such as the ISS; scientific satellites like the Hubble; Earth observation satellites from companies like Planet Labs, Umbra, and HawkEye 360; GPS; miniature CubeSats for education and research; and military/defense satellites.

Loading next visibility...
Identifier
21106, 1991-009G
Orbit
LEO
Country
Flag of CISCIS
Related business
Manufacturer
NPO PM
Mission
Defense Communications
Bus & Motor
STRELA-1 11F625, Unknown motor
Mass
60 kg wet, 60 kg dry
Launch date (UTC)
1991-02-12 (35 years ago)
Launch vehicle
KOSMOS 11K65M
Launch site
Plesetsk Missile And Space Complex (PKMTR)
Object type
Payload
Rocket body
Debris
Shape & HBR
Sphere, 0.4 m
Radar Cross Section
0.588 m², Medium (>0.1 m² and < 1m²)

Expand to show TLE details & history
Last TLE update: 2 days ago

TLE from 2 days ago
0 COSMOS 2131
1 21106U 91009G   26171.37167454 -.00000012  00000-0  24011-4 0  9999
2 21106  74.0309  26.4671 0051850 162.8522  10.3269 12.58964434624667
Epoch: 2026-06-20T08:55Z
TLE epoch observation values (Epoch: 2026-06-20T08:55:12.680Z)
Latitude
6.38815°
Longitude
162.25015°
Altitude
1,389.2 km
Speed
7.184 km/s
True Right ascension
13h 38m 33s
True Declination
6° 21' 12"
Sunlit
Object was in daylight at epoch
Visualization orbit readout
Latitude
Unknown
Longitude
Unknown
Altitude
Unknown
Speed
Unknown
Apparent Right ascension
Unknown
Apparent Declination
Unknown
Sunlit
N/A
Visualization observer readout
Local Sidereal Time
00:51:00
Azimuth
Unknown
Elevation
Unknown
Doppler factor
Unknown
Orbital elements
Apogee altitude
1,465.506 km
Perigee altitude
1,384.587 km
Semi-major axis
7,803.183 km
Eccentricity
0.00519
Inclination
74.0309°
RAAN
26.4671°
Arg. of periapsis
162.8522°
True anomaly
10.43409°
Mean anomaly
10.3269°
Eccentric anomaly
10.38043°
Mean motion
3.14873 °/min
Orbital period
114.33 mins
BSTAR
0.000024011
Loading maneuver chart data...
Computing Atmospheric mass density...
Loading historical data...
Loading historical data...
Loading historical data...
Loading historical data...
Loading historical data...
Loading historical data...
Loading historical data...

Documentation

Showing up to 5 results
|